Regional Weather Roundup
Issued by NWS

Home | Current Version | Previous Version | Text Only | Print | Product List | Glossary Off
Versions: 1 2 3 4 5 6 7 8 9 10 11 12 13 14 15 16 17 18 19 20 21 22 23 24 25 26 27

000
ASUS45 KTFX 251310
RWRMT
MONTANA REGIONAL WEATHER ROUNDUP
NATIONAL WEATHER SERVICE GREAT FALLS MT
700 AM MDT TUE JUL 25 2017

NOTE: "FAIR" INDICATES FEW OR NO CLOUDS BELOW 12000 FEET WITH NO
SIGNIFICANT WEATHER AND/OR OBSTRUCTIONS TO VISIBILITY.

MTZ001>007-043-251400-
WEST OF THE DIVIDE

CITY           SKY/WX    TMP DP  RH WIND       PRES   REMARKS
KALISPELL      CLEAR     62  41  46 N12       30.03R
MISSOULA       CLEAR     50  35  56 NW5       30.06R
BUTTE          CLOUDY    50  36  58 CALM      30.17R
MULLAN PASS    CLEAR     59  26  28 CALM      30.16R
ANACONDA         N/A     52  34  50 SW3       30.14R
DEER LODGE       N/A     55  36  47 NW8       30.15R
EUREKA           N/A     45  36  70 MISG      30.07R
HAMILTON         N/A     54  41  62 CALM      30.07R
LIBBY            N/A     45  36  70 CALM      30.05R
$$

MTZ008-052>055-251400-
SOUTHWEST MONTANA

CITY           SKY/WX    TMP DP  RH WIND       PRES   REMARKS
BOZEMAN        CLOUDY    61  39  44 W10       30.11R
DILLON         CLOUDY    59  47  64 CALM      30.11R
W YELLOWSTONE  CLOUDY    45  43  93 CALM      30.24R
ENNIS          CLEAR     57  43  58 MISG      30.18R
THREE FORKS      N/A     62  38  41 N3        30.10R
TWIN BRIDGES     N/A     60  38  44 CALM      30.09R
$$

MTZ009-010-012-014-046-048-049-054-251400-
EAST SLOPES AND CENTRAL MONTANA

CITY           SKY/WX    TMP DP  RH WIND       PRES   REMARKS
CUT BANK       CLEAR     45  40  82 W8        30.17R
GREAT FALLS    PTCLDY    50  39  66 NW5       30.18R
HELENA         PTCLDY    60  39  45 W9        30.15R
CHOTEAU          N/A     50  41  71 SW3       30.20R
$$

MTZ011-013-016-021-045-047-050-051-251400-
NORTH CENTRAL MONTANA

CITY           SKY/WX    TMP DP  RH WIND       PRES   REMARKS
HAVRE          SUNNY     52  41  66 SW5       30.12R
LEWISTOWN      MOSUNNY   51  37  58 CALM      30.16S
N BAR RANCH      N/A     59  36  41 NW6       30.19R
CHINOOK          N/A     52  43  71 W6        30.11R
$$

MTZ017>020-022>027-061-062-251400-
NORTHEAST MONTANA

CITY           SKY/WX    TMP DP  RH WIND       PRES   REMARKS
GLASGOW        MOSUNNY   58  46  64 NW10      30.04R
JORDAN           N/A     63  39  41 N13       30.05R
SIDNEY         CLOUDY    65  44  46 N6        30.00R
WOLF POINT     CLOUDY    64  47  53 VRB3      30.02R
MALTA          SUNNY     61  41  48 NW7       30.08S
PLENTYWOOD       N/A     61  45  55 NW18G24   30.00R
POPLAR           N/A     63  45  51 N8        30.01S
SCOBEY           N/A     58  41  53 NW12      30.03R
$$

MTZ028>42-056>058-251400-
SOUTHCENTRAL AND SOUTHEAST MONTANA

CITY           SKY/WX    TMP DP  RH WIND       PRES   REMARKS
BAKER          CLOUDY    69  47  45 NE18G26   30.00R
BILLINGS       PTSUNNY   65  38  36 NE12      30.10R
LIVINGSTON     CLOUDY    64  44  48 E14       30.14R
MILES CITY     SUNNY     69  37  30 NE21      30.00R
BIG TIMBER     CLEAR     61  41  48 NE12      30.19R
EKALAKA          N/A     66  50  56 N7        29.97R
FORSYTH          N/A     66  39  37 NE9G18    30.03R
LAUREL           N/A     65  39  38 N5        30.10R
$$

REGIONAL REPORTS...DAKOTAS

CITY           SKY/WX    TMP DP  RH WIND       PRES   REMARKS
WILLISTON      CLOUDY    65  45  48 N3        29.98S
MINOT          CLOUDY    65  48  54 NW15      29.93R
DICKINSON      CLOUDY    65  52  62 N8        29.97R
BEACH            N/A     63  50  63 N6        30.05R
CROSBY           N/A     61  46  59 NW16      29.97S
TIOGA            N/A     61  45  55 NW7       29.99F
WATFORD CITY     N/A     64  46  52 N6        29.98R
BISMARCK       CLOUDY    69  66  90 S8        29.95R
GRAND FORKS    CLOUDY    68  66  93 S6        29.87R
FARGO          SUNNY     71  65  81 S13       29.88R
BUFFALO SD       N/A     69  61  75 NE24      29.84F
RAPID CITY     CLOUDY    69  62  78 NW9       29.93R
$$

REGIONAL REPORTS...WYOMING/IDAHO/WASHINGTON

CITY           SKY/WX    TMP DP  RH WIND       PRES   REMARKS
GILLETTE       SUNNY     67  55  65 NW6       30.00R
SHERIDAN       MOSUNNY   67  52  58 CALM      30.02R
BUFFALO WY     SUNNY     68  47  46 SW7       30.09R
CODY           CLOUDY    66  44  45 NE9       30.13R
YELLOWSTONE LA   N/A     45  43  93 CALM      30.32R
IDAHO FALLS    CLOUDY    59  54  83 CALM      30.07S
BOISE          CLOUDY    73  50  44 S6        29.93R
SPOKANE        PTCLDY    61  41  47 NE3       30.01R
$$

REGIONAL REPORTS...ALBERTA

CITY           SKY/WX    TMP DP  RH WIND       PRES   REMARKS
EDMONTON       CLEAR     50  48  93 SW5       30.03R
CALGARY        PTCLDY    48  43  81 S3        30.12S
LETHBRIDGE     CLEAR     48  43  81 W5        30.14R
MEDICINE HAT   SUNNY     52  46  82 SW6       30.10R
CARDSTON         N/A     46  39  76 S5          N/A
MILK RIVER       N/A     46  41  81 NW9         N/A
$$

REGIONAL REPORTS...SASKATCHEWAN

CITY           SKY/WX    TMP DP  RH WIND       PRES   REMARKS
SWIFT CURRENT  SUNNY     52  46  82 W17G24    30.03R
REGINA         PTSUNNY   55  48  76 W15G21    29.92R
SASKATOON      PTSUNNY   59  55  88 W16G28    29.87R
VAL MARIE        N/A     54  43  66 NW3         N/A
ROCKGLEN         N/A     54  45  71 W13         N/A
$$




USA.gov is the U.S. government's official web portal to all federal, state and local government web resources and services.